| time (UTC) | temp C | wind direction | speed KPH | gust KPH | rain 1hr cm | rain 24hr cm | rain mn cm | humidity % | barometer mb |
| 20260507122506 | 21 | 235 | 1.6 | 1.6 | 0.00 | 0.00 | 0.00 | 86 | 1011.0 |
| 20260507122406 | 21 | 235 | 1.6 | 1.6 | 0.00 | 0.00 | 0.00 | 86 | 1011.0 |
| 20260507120506 | 22 | 235 | 1.6 | 1.6 | 0.00 | 0.00 | 0.00 | 86 | 1011.0 |
| 20260507120406 | 22 | 235 | 1.6 | 1.6 | 0.00 | 0.00 | 0.00 | 86 | 1011.0 |
| 20260507114505 | 22 | 235 | 3.2 | 3.2 | 0.00 | 0.00 | 0.00 | 86 | 1011.0 |
| 20260507114405 | 22 | 235 | 3.2 | 3.2 | 0.00 | 0.00 | 0.00 | 86 | 1011.0 |
| 20260507112505 | 21 | 234 | 1.6 | 1.6 | 0.00 | 0.00 | 0.00 | 84 | 1011.0 |
| 20260507112405 | 21 | 234 | 1.6 | 1.6 | 0.00 | 0.00 | 0.00 | 84 | 1011.0 |
| 20260507110504 | 22 | 234 | 1.6 | 1.6 | 0.00 | 0.00 | 0.00 | 84 | 1011.0 |
| 20260507110404 | 22 | 234 | 1.6 | 1.6 | 0.00 | 0.00 | 0.00 | 84 | 1011.0 |
| 20260507104504 | 22 | 234 | 1.6 | 1.6 | 0.00 | 0.00 | 0.00 | 84 | 1011.0 |
| 20260507104403 | 22 | 234 | 1.6 | 1.6 | 0.00 | 0.00 | 0.00 | 84 | 1011.0 |
| 20260507102503 | 23 | 234 | 3.2 | 3.2 | 0.00 | 0.00 | 0.00 | 84 | 1011.0 |
| 20260507102403 | 23 | 234 | 3.2 | 3.2 | 0.00 | 0.00 | 0.00 | 84 | 1011.0 |
| 20260507100503 | 21 | 238 | 1.6 | 1.6 | 0.00 | 0.00 | 0.00 | 84 | 1011.0 |
| 20260507100402 | 21 | 238 | 1.6 | 1.6 | 0.00 | 0.00 | 0.00 | 84 | 1011.0 |
| 20260507094502 | 22 | 238 | 1.6 | 1.6 | 0.00 | 0.00 | 0.00 | 84 | 1011.0 |
| 20260507094402 | 22 | 238 | 1.6 | 1.6 | 0.00 | 0.00 | 0.00 | 84 | 1011.0 |
| 20260507092502 | 22 | 238 | 1.6 | 1.6 | 0.00 | 0.00 | 0.00 | 84 | 1011.0 |
| 20260507092401 | 22 | 238 | 1.6 | 1.6 | 0.00 | 0.00 | 0.00 | 84 | 1011.0 |
| 20260507090501 | 23 | 238 | 3.2 | 3.2 | 0.00 | 0.00 | 0.00 | 84 | 1011.0 |
| 20260507090400 | 23 | 238 | 3.2 | 3.2 | 0.00 | 0.00 | 0.00 | 84 | 1011.0 |
| 20260507084500 | 21 | 249 | 1.6 | 1.6 | 0.00 | 0.00 | 0.00 | 83 | 1011.0 |
| 20260507084400 | 21 | 249 | 1.6 | 1.6 | 0.00 | 0.00 | 0.00 | 83 | 1011.0 |
| 20260507082500 | 22 | 249 | 1.6 | 1.6 | 0.00 | 0.00 | 0.00 | 83 | 1011.0 |
| 20260507082400 | 22 | 249 | 1.6 | 1.6 | 0.00 | 0.00 | 0.00 | 83 | 1011.0 |
| 20260507080459 | 22 | 249 | 1.6 | 1.6 | 0.00 | 0.00 | 0.00 | 83 | 1011.0 |
| 20260507080359 | 22 | 249 | 1.6 | 1.6 | 0.00 | 0.00 | 0.00 | 83 | 1011.0 |
| 20260507074459 | 23 | 249 | 1.6 | 1.6 | 0.00 | 0.00 | 0.00 | 83 | 1011.0 |
| 20260507074358 | 23 | 249 | 1.6 | 1.6 | 0.00 | 0.00 | 0.00 | 83 | 1011.0 |
| 20260507072458 | 23 | 249 | 1.6 | 1.6 | 0.00 | 0.00 | 0.00 | 83 | 1011.0 |
| 20260507072358 | 23 | 249 | 1.6 | 1.6 | 0.00 | 0.00 | 0.00 | 83 | 1011.0 |
| 20260507070458 | 24 | 249 | 1.6 | 1.6 | 0.00 | 0.00 | 0.00 | 83 | 1011.0 |
| 20260507070358 | 24 | 249 | 1.6 | 1.6 | 0.00 | 0.00 | 0.00 | 83 | 1011.0 |
| 20260507064458 | 25 | 249 | 1.6 | 1.6 | 0.00 | 0.00 | 0.00 | 83 | 1011.0 |
| 20260507064357 | 25 | 249 | 1.6 | 1.6 | 0.00 | 0.00 | 0.00 | 83 | 1011.0 |
| 20260507062457 | 25 | 249 | 1.6 | 1.6 | 0.00 | 0.00 | 0.00 | 83 | 1012.0 |
| 20260507062357 | 25 | 249 | 1.6 | 1.6 | 0.00 | 0.00 | 0.00 | 83 | 1012.0 |
| 20260507060456 | 26 | 249 | 3.2 | 3.2 | 0.00 | 0.00 | 0.00 | 83 | 1012.0 |
| 20260507060356 | 26 | 249 | 3.2 | 3.2 | 0.00 | 0.00 | 0.00 | 83 | 1012.0 |
| 20260507054456 | 22 | 239 | 4.8 | 4.8 | 0.00 | 0.00 | 0.00 | 82 | 1012.0 |
| 20260507054355 | 22 | 239 | 4.8 | 4.8 | 0.00 | 0.00 | 0.00 | 82 | 1012.0 |
| 20260507052455 | 22 | 239 | 4.8 | 4.8 | 0.00 | 0.00 | 0.00 | 82 | 1013.0 |
| 20260507052355 | 22 | 239 | 4.8 | 4.8 | 0.00 | 0.00 | 0.00 | 82 | 1013.0 |
| 20260507050455 | 23 | 239 | 4.8 | 4.8 | 0.00 | 0.00 | 0.00 | 82 | 1013.0 |
| 20260507050355 | 23 | 239 | 4.8 | 4.8 | 0.00 | 0.00 | 0.00 | 82 | 1013.0 |
| 20260507044454 | 23 | 239 | 4.8 | 4.8 | 0.00 | 0.00 | 0.00 | 82 | 1013.0 |
| 20260507044354 | 23 | 239 | 4.8 | 4.8 | 0.00 | 0.00 | 0.00 | 82 | 1013.0 |
| 20260507042453 | 24 | 239 | 4.8 | 4.8 | 0.00 | 0.00 | 0.00 | 82 | 1013.0 |
| 20260507042353 | 24 | 239 | 4.8 | 4.8 | 0.00 | 0.00 | 0.00 | 82 | 1013.0 |
| 20260507040453 | 25 | 239 | 4.8 | 4.8 | 0.00 | 0.00 | 0.00 | 82 | 1013.0 |
| 20260507040352 | 25 | 239 | 4.8 | 4.8 | 0.00 | 0.00 | 0.00 | 82 | 1013.0 |
| 20260507034452 | 25 | 239 | 4.8 | 4.8 | 0.00 | 0.00 | 0.00 | 82 | 1013.0 |
| 20260507034352 | 25 | 239 | 4.8 | 4.8 | 0.00 | 0.00 | 0.00 | 82 | 1013.0 |
| 20260507032451 | 26 | 239 | 4.8 | 4.8 | 0.00 | 0.00 | 0.00 | 82 | 1013.0 |
| 20260507032351 | 26 | 239 | 4.8 | 4.8 | 0.00 | 0.00 | 0.00 | 82 | 1013.0 |
| 20260507030451 | 26 | 239 | 4.8 | 4.8 | 0.00 | 0.00 | 0.00 | 82 | 1013.0 |
| 20260507030351 | 26 | 239 | 4.8 | 4.8 | 0.00 | 0.00 | 0.00 | 82 | 1013.0 |
| 20260507024450 | 22 | 228 | 1.6 | 1.6 | 0.00 | 0.00 | 0.00 | 81 | 1013.0 |
| 20260507024350 | 22 | 228 | 1.6 | 1.6 | 0.00 | 0.00 | 0.00 | 81 | 1013.0 |
| 20260507022450 | 23 | 228 | 1.6 | 1.6 | 0.00 | 0.00 | 0.00 | 81 | 1012.0 |
| 20260507022350 | 23 | 228 | 1.6 | 1.6 | 0.00 | 0.00 | 0.00 | 81 | 1012.0 |
| 20260507020449 | 23 | 228 | 1.6 | 1.6 | 0.00 | 0.00 | 0.00 | 81 | 1012.0 |
| 20260507020349 | 23 | 228 | 1.6 | 1.6 | 0.00 | 0.00 | 0.00 | 81 | 1012.0 |
| 20260507014449 | 24 | 228 | 1.6 | 1.6 | 0.00 | 0.00 | 0.00 | 81 | 1012.0 |
| 20260507014349 | 24 | 228 | 1.6 | 1.6 | 0.00 | 0.00 | 0.00 | 81 | 1012.0 |
| 20260507012448 | 25 | 228 | 3.2 | 1.6 | 0.00 | 0.00 | 0.00 | 81 | 1011.0 |
| 20260507012348 | 25 | 228 | 3.2 | 1.6 | 0.00 | 0.00 | 0.00 | 81 | 1011.0 |
| 20260507010448 | 22 | 228 | 1.6 | 1.6 | 0.00 | 0.00 | 0.00 | 81 | 1011.0 |
| 20260507010348 | 22 | 228 | 1.6 | 1.6 | 0.00 | 0.00 | 0.00 | 81 | 1011.0 |
| 20260507004448 | 23 | 228 | 3.2 | 1.6 | 0.00 | 0.00 | 0.00 | 81 | 1011.0 |
| 20260507004347 | 23 | 228 | 3.2 | 1.6 | 0.00 | 0.00 | 0.00 | 81 | 1011.0 |
| 20260507002447 | 23 | 357 | 0.0 | 1.6 | 0.00 | 0.00 | 0.00 | 81 | 1011.0 |
| 20260507002347 | 23 | 357 | 0.0 | 1.6 | 0.00 | 0.00 | 0.00 | 81 | 1011.0 |
| 20260507000449 | 24 | 357 | 0.0 | 1.6 | 0.00 | 0.00 | 0.00 | 81 | 1011.0 |
| 20260507000347 | 24 | 357 | 0.0 | 1.6 | 0.00 | 0.00 | 0.00 | 81 | 1011.0 |
| 20260506234446 | 25 | 357 | 0.0 | 1.6 | 0.00 | 0.00 | 0.00 | 81 | 1011.0 |
| 20260506234346 | 25 | 357 | 0.0 | 1.6 | 0.00 | 0.00 | 0.00 | 81 | 1011.0 |
| 20260506232446 | 24 | 14 | 1.6 | 1.6 | 0.00 | 0.00 | 0.00 | 78 | 1010.0 |
| 20260506232346 | 24 | 14 | 1.6 | 1.6 | 0.00 | 0.00 | 0.00 | 78 | 1010.0 |
| 20260506230445 | 25 | 14 | 1.6 | 1.6 | 0.00 | 0.00 | 0.00 | 78 | 1010.0 |
| 20260506230345 | 25 | 14 | 1.6 | 1.6 | 0.00 | 0.00 | 0.00 | 78 | 1010.0 |
| 20260506224445 | 25 | 14 | 3.2 | 3.2 | 0.00 | 0.00 | 0.00 | 78 | 1010.0 |
| 20260506224345 | 25 | 14 | 3.2 | 3.2 | 0.00 | 0.00 | 0.00 | 78 | 1010.0 |
| 20260506222444 | 25 | 16 | 6.4 | 8.0 | 0.00 | 0.00 | 0.00 | 76 | 1010.0 |
| 20260506222344 | 25 | 16 | 6.4 | 8.0 | 0.00 | 0.00 | 0.00 | 76 | 1010.0 |
| 20260506220444 | 26 | 16 | 6.4 | 8.0 | 0.00 | 0.00 | 0.00 | 76 | 1010.0 |
| 20260506220344 | 26 | 16 | 6.4 | 8.0 | 0.00 | 0.00 | 0.00 | 76 | 1010.0 |
| 20260506214443 | 26 | 16 | 6.4 | 8.0 | 0.00 | 0.00 | 0.00 | 76 | 1010.0 |
| 20260506214343 | 26 | 16 | 6.4 | 8.0 | 0.00 | 0.00 | 0.00 | 76 | 1010.0 |
| 20260506212443 | 25 | 13 | 8.0 | 8.0 | 0.00 | 0.00 | 0.00 | 78 | 1010.0 |
| 20260506212343 | 25 | 13 | 8.0 | 8.0 | 0.00 | 0.00 | 0.00 | 78 | 1010.0 |
| 20260506210442 | 26 | 13 | 8.0 | 8.0 | 0.00 | 0.00 | 0.00 | 78 | 1010.0 |
| 20260506210342 | 26 | 13 | 8.0 | 8.0 | 0.00 | 0.00 | 0.00 | 78 | 1010.0 |
| 20260506204442 | 26 | 13 | 8.0 | 8.0 | 0.00 | 0.00 | 0.00 | 78 | 1010.0 |
| 20260506204342 | 26 | 13 | 8.0 | 8.0 | 0.00 | 0.00 | 0.00 | 78 | 1010.0 |
| 20260506202441 | 27 | 13 | 8.0 | 8.0 | 0.00 | 0.00 | 0.00 | 78 | 1010.0 |
| 20260506202341 | 27 | 13 | 8.0 | 8.0 | 0.00 | 0.00 | 0.00 | 78 | 1010.0 |
| 20260506200441 | 27 | 13 | 8.0 | 8.0 | 0.00 | 0.00 | 0.00 | 78 | 1010.0 |
| 20260506200341 | 27 | 13 | 8.0 | 8.0 | 0.00 | 0.00 | 0.00 | 78 | 1010.0 |
| 20260506194441 | 28 | 13 | 8.0 | 8.0 | 0.00 | 0.00 | 0.00 | 78 | 1010.0 |
| 20260506194341 | 28 | 13 | 8.0 | 8.0 | 0.00 | 0.00 | 0.00 | 78 | 1010.0 |
| 20260506192440 | 28 | 13 | 9.7 | 9.7 | 0.00 | 0.00 | 0.00 | 78 | 1011.0 |
| 20260506192340 | 28 | 13 | 9.7 | 9.7 | 0.00 | 0.00 | 0.00 | 78 | 1011.0 |
| 20260506190440 | 26 | 21 | 11.3 | 8.0 | 0.00 | 0.00 | 0.00 | 79 | 1011.0 |
| 20260506190339 | 26 | 21 | 11.3 | 8.0 | 0.00 | 0.00 | 0.00 | 79 | 1011.0 |
| 20260506184439 | 26 | 21 | 11.3 | 8.0 | 0.00 | 0.00 | 0.00 | 79 | 1011.0 |
| 20260506184339 | 26 | 21 | 11.3 | 8.0 | 0.00 | 0.00 | 0.00 | 79 | 1011.0 |
| 20260506182438 | 27 | 21 | 11.3 | 8.0 | 0.00 | 0.00 | 0.00 | 79 | 1012.0 |
| 20260506182338 | 27 | 21 | 11.3 | 8.0 | 0.00 | 0.00 | 0.00 | 79 | 1012.0 |
| 20260506180438 | 27 | 21 | 11.3 | 8.0 | 0.00 | 0.00 | 0.00 | 79 | 1012.0 |
| 20260506180338 | 27 | 21 | 11.3 | 8.0 | 0.00 | 0.00 | 0.00 | 79 | 1012.0 |
| 20260506174438 | 28 | 21 | 11.3 | 8.0 | 0.00 | 0.00 | 0.00 | 79 | 1012.0 |
| 20260506174337 | 28 | 21 | 11.3 | 8.0 | 0.00 | 0.00 | 0.00 | 79 | 1012.0 |
| 20260506172437 | 28 | 21 | 11.3 | 9.7 | 0.00 | 0.00 | 0.00 | 79 | 1012.0 |
| 20260506172337 | 28 | 21 | 11.3 | 9.7 | 0.00 | 0.00 | 0.00 | 79 | 1012.0 |
| 20260506170437 | 26 | 13 | 8.0 | 6.4 | 0.00 | 0.00 | 0.00 | 80 | 1012.0 |
| 20260506170336 | 26 | 13 | 8.0 | 6.4 | 0.00 | 0.00 | 0.00 | 80 | 1012.0 |
| 20260506164436 | 27 | 13 | 8.0 | 6.4 | 0.00 | 0.00 | 0.00 | 80 | 1012.0 |
| 20260506164336 | 27 | 13 | 8.0 | 6.4 | 0.00 | 0.00 | 0.00 | 80 | 1012.0 |
| 20260506162436 | 27 | 13 | 8.0 | 6.4 | 0.00 | 0.00 | 0.00 | 80 | 1013.0 |
| 20260506162335 | 27 | 13 | 8.0 | 6.4 | 0.00 | 0.00 | 0.00 | 80 | 1013.0 |
| 20260506160435 | 28 | 13 | 8.0 | 6.4 | 0.00 | 0.00 | 0.00 | 80 | 1013.0 |
| 20260506160335 | 28 | 13 | 8.0 | 6.4 | 0.00 | 0.00 | 0.00 | 80 | 1013.0 |
| 20260506154435 | 26 | 2 | 4.8 | 4.8 | 0.00 | 0.00 | 0.00 | 82 | 1013.0 |
| 20260506154334 | 26 | 2 | 4.8 | 4.8 | 0.00 | 0.00 | 0.00 | 82 | 1013.0 |
| 20260506152434 | 27 | 2 | 4.8 | 4.8 | 0.00 | 0.00 | 0.00 | 82 | 1013.0 |
| 20260506152334 | 27 | 2 | 4.8 | 4.8 | 0.00 | 0.00 | 0.00 | 82 | 1013.0 |
| 20260506150434 | 27 | 2 | 4.8 | 4.8 | 0.00 | 0.00 | 0.00 | 82 | 1013.0 |
| 20260506150333 | 27 | 2 | 4.8 | 4.8 | 0.00 | 0.00 | 0.00 | 82 | 1013.0 |
| 20260506144433 | 26 | 325 | 1.6 | 1.6 | 0.00 | 0.00 | 0.00 | 84 | 1013.0 |
| 20260506142433 | 26 | 325 | 1.6 | 1.6 | 0.00 | 0.00 | 0.00 | 84 | 1013.0 |
| 20260506142332 | 26 | 325 | 1.6 | 1.6 | 0.00 | 0.00 | 0.00 | 84 | 1013.0 |
| 20260506140432 | 27 | 325 | 1.6 | 3.2 | 0.00 | 0.00 | 0.00 | 84 | 1013.0 |
| 20260506140332 | 27 | 325 | 1.6 | 3.2 | 0.00 | 0.00 | 0.00 | 84 | 1013.0 |
| 20260506134432 | 24 | 247 | 1.6 | 1.6 | 0.00 | 0.00 | 0.00 | 85 | 1013.0 |
| 20260506134331 | 24 | 247 | 1.6 | 1.6 | 0.00 | 0.00 | 0.00 | 85 | 1013.0 |
| 20260506132431 | 25 | 247 | 1.6 | 3.2 | 0.00 | 0.00 | 0.00 | 85 | 1012.0 |
| 20260506132331 | 25 | 247 | 1.6 | 3.2 | 0.00 | 0.00 | 0.00 | 85 | 1012.0 |
| 20260506130431 | 23 | 247 | 1.6 | 1.6 | 0.00 | 0.00 | 0.00 | 85 | 1012.0 |
| 20260506130331 | 23 | 247 | 1.6 | 1.6 | 0.00 | 0.00 | 0.00 | 85 | 1012.0 |
| 20260506124430 | 24 | 247 | 1.6 | 3.2 | 0.00 | 0.00 | 0.00 | 85 | 1012.0 |
| 20260506124330 | 24 | 247 | 1.6 | 3.2 | 0.00 | 0.00 | 0.00 | 85 | 1012.0 |